Theta_e
307 311 311 311 314 315 319 319 320 321 315 316 320 320 330 330 331 327 323 320 317 315 309 310 312 315 316 320 325 326 328 326 325 321 315 310 305 304 302 300 299 299 298 297
306 308 308 311 312 314 317 318 318 314 315 315 315 316 315 327 329 326 323 321 317 311 310 309 311 312 316 318 321 322 323 321 319 317 313 308 302 300 298 297 296 296 296 296
308 307 307 312 312 314 315 318 315 317 313 314 314 319 321 326 327 324 322 320 315 311 309 309 309 308 310 315 316 316 315 314 313 312 308 302 300 297 296 295 294 294 295 294
307 307 306 307 312 313 316 314 315 314 316 321 314 321 315 316 327 324 322 318 312 311 309 309 306 305 307 309 312 313 310 310 309 307 304 301 298 297 296 295 294 293 293 293
306 308 307 309 310 310 314 315 317 315 316 316 316 320 319 320 319 326 322 318 312 310 308 308 304 303 304 306 308 310 308 307 306 307 304 301 298 297 295 294 293 293 292 292
305 305 307 308 309 310 312 314 315 315 316 319 317 319 319 324 321 321 322 317 312 309 307 303 301 301 300 302 305 306 306 305 303 302 302 301 299 295 294 294 293 292 292 291
304 304 305 308 310 310 313 316 317 318 318 317 317 318 316 321 321 320 318 314 309 306 303 301 300 299 299 299 300 301 303 303 302 302 302 300 297 295 295 294 293 293 291 290
301 301 306 309 309 310 313 316 318 320 320 319 317 319 319 317 318 317 317 314 308 306 304 302 300 299 298 298 298 299 299 300 300 302 298 297 296 296 295 294 293 293 291 290
304 302 303 306 307 310 309 312 312 315 317 322 321 320 318 314 318 318 317 310 307 306 304 303 301 300 299 298 298 299 300 299 300 298 297 297 296 295 294 294 293 291 291 290
306 306 303 307 309 311 309 311 311 315 320 320 320 321 320 314 318 317 315 307 306 305 303 302 300 299 298 297 296 296 296 296 297 296 295 294 293 293 293 292 291 291 290 289
304 305 304 307 311 313 310 309 312 314 316 320 320 319 309 313 317 315 313 308 306 304 302 301 299 297 295 294 294 293 293 293 293 293 293 292 292 292 292 291 290 290 289 288
303 307 299 303 305 309 311 309 310 308 310 315 315 316 303 304 305 314 311 307 302 302 301 300 298 295 294 293 292 292 292 292 292 291 291 291 291 291 290 290 290 289 288 287
304 307 292 296 301 308 310 310 311 311 311 314 316 315 304 304 310 311 310 305 303 302 301 299 296 295 294 293 292 292 291 291 291 291 290 290 290 290 290 289 289 288 288 287
303 308 300 299 307 307 308 307 309 311 309 312 314 314 308 307 309 310 309 306 305 304 302 298 296 295 293 292 291 291 291 291 291 290 290 290 290 290 289 289 288 288 287 287
299 303 305 301 305 307 307 308 309 312 310 313 312 315 307 306 308 306 308 306 305 302 300 298 296 295 293 293 291 290 291 291 290 290 290 290 290 289 289 288 288 287 287 286
298 298 303 300 302 305 307 308 309 308 309 310 311 313 306 304 305 304 303 302 300 299 298 296 295 293 293 291 291 291 290 290 290 290 290 290 289 289 288 288 287 287 287 286
298 299 303 301 303 305 302 302 306 306 308 310 312 310 304 304 305 304 302 301 300 298 297 295 294 293 292 292 291 290 291 290 290 290 290 289 289 288 288 288 287 287 286 286
296 297 302 304 300 301 300 299 301 303 304 305 309 308 306 304 303 303 301 300 299 298 296 295 294 293 292 292 291 291 291 291 290 290 290 289 289 288 288 287 287 287 286 286
297 299 302 295 291 297 305 299 303 308 308 304 307 304 300 299 299 300 300 299 299 297 296 295 294 293 292 292 292 291 291 291 290 290 289 290 289 288 288 288 287 287 286 286
296 299 297 291 297 304 304 299 297 298 302 295 300 303 300 298 305 303 298 299 298 297 296 295 294 293 292 292 292 292 291 290 290 290 290 290 289 289 288 288 287 287 286 285
286 286 299 297 303 298 300 298 298 300 302 294 295 300 299 302 300 296 296 298 298 296 295 294 293 292 293 292 292 290 290 290 291 290 290 290 289 289 289 288 287 286 285 285
291 296 295 288 298 303 296 301 307 302 294 294 295 299 296 296 296 295 296 296 294 293 293 293 292 292 292 292 291 291 291 292 291 290 290 290 290 289 288 287 286 286 285 284
287 294 294 295 297 296 294 300 298 293 293 294 294 294 298 297 295 295 295 294 292 293 293 293 293 292 292 292 292 292 292 291 291 290 290 290 290 289 288 287 286 285 285 284
288 289 290 291 291 293 293 293 294 293 293 294 293 293 295 297 294 294 293 292 291 292 292 292 292 291 291 292 292 293 292 292 291 291 291 290 289 289 287 287 287 286 285 284
288 288 287 289 290 290 291 291 293 293 292 292 292 292 293 294 293 292 292 291 291 292 292 292 292 292 292 292 292 292 292 292 292 292 291 290 290 289 288 287 286 285 285 284
287 288 289 289 289 290 290 290 290 291 292 290 290 292 291 293 291 291 290 291 291 291 291 291 292 292 292 292 292 292 292 293 292 292 291 291 289 288 287 286 286 285 285 284
Wind_Speed
5 3 6 11 12 15 9 6 10 7 5 3 8 12 15 17 15 16 14 13 14 11 11 14 17 18 20 19 21 26 28 26 28 27 27 24 22 20 18 16 15 14 14 13
4 10 15 9 12 13 16 14 8 3 0 5 4 15 11 17 19 20 19 15 15 12 12 14 15 16 17 20 20 26 29 30 29 28 26 24 27 19 19 18 16 15 14 13
7 14 9 10 12 13 13 13 6 1 2 2 3 6 6 14 10 14 14 13 14 15 13 13 15 17 16 20 24 26 27 26 26 26 26 28 24 24 21 18 17 16 14 13
8 7 11 13 10 6 13 10 14 5 3 3 2 4 2 13 10 15 16 16 17 16 13 13 16 14 17 21 24 27 27 27 25 28 30 28 27 22 19 20 18 16 14 14
7 11 12 14 15 10 7 7 11 8 9 4 4 3 1 8 9 10 18 19 17 17 17 13 17 18 16 20 23 25 25 25 24 24 26 26 23 25 25 23 19 16 15 14
15 8 5 11 5 8 5 3 5 5 3 7 11 6 5 6 10 8 12 16 18 18 14 13 19 19 20 18 22 26 28 27 27 23 22 25 25 28 27 23 19 17 14 13
13 6 9 7 3 5 2 4 4 6 6 5 17 8 13 9 7 13 11 14 16 16 15 12 15 17 19 19 22 24 30 27 25 21 18 19 23 25 25 22 20 18 15 12
4 8 2 2 5 6 7 4 5 3 4 4 10 8 5 3 3 10 16 14 15 15 13 12 13 22 21 18 20 27 29 30 25 24 21 23 24 23 20 21 18 16 14 12
4 6 4 4 7 1 4 5 1 6 3 3 5 2 3 1 5 5 16 17 16 14 14 13 14 17 24 24 19 30 31 28 29 26 28 24 23 23 21 18 16 16 13 12
4 8 5 1 4 5 7 2 2 1 4 1 2 3 1 4 6 7 16 16 15 14 13 11 17 13 15 18 20 19 26 30 31 30 28 26 23 22 19 17 17 14 12 10
7 6 6 3 1 4 2 4 4 4 3 2 3 2 2 6 9 15 16 16 16 15 12 11 15 20 21 19 21 20 24 30 31 28 27 26 24 21 19 17 15 13 11 10
4 3 3 7 5 7 4 5 6 2 3 3 3 2 2 4 1 6 11 13 13 12 12 10 16 18 21 24 21 21 27 28 28 25 25 24 22 20 19 16 13 11 10 9
4 2 3 9 5 3 1 7 5 4 2 3 0 2 1 4 4 9 15 13 13 14 13 10 13 17 18 22 22 23 26 25 25 24 23 22 20 18 16 14 12 11 9 8
8 3 3 4 3 2 4 8 8 3 1 4 2 2 3 3 6 9 13 14 14 14 16 14 11 15 18 19 21 26 26 27 26 24 22 20 19 16 15 13 12 11 9 7
4 3 3 5 7 5 5 5 5 2 3 2 3 4 5 1 4 6 11 13 13 13 14 14 13 13 17 21 20 23 28 27 26 24 21 19 16 15 13 13 12 10 8 7
7 4 4 4 6 3 7 9 7 6 3 6 6 1 5 3 5 5 12 14 15 15 15 16 15 20 25 27 29 28 28 27 26 23 20 18 17 16 15 13 11 9 9 8
3 4 4 4 5 5 7 8 11 4 5 6 7 5 5 0 4 6 8 12 14 15 14 15 15 21 23 24 26 26 31 29 25 22 21 20 18 18 15 12 11 11 10 9
4 3 2 3 4 1 6 2 3 6 7 8 5 5 7 6 4 5 5 9 11 14 15 14 18 21 23 27 30 31 30 27 25 24 22 21 20 17 15 14 13 12 11 12
5 3 3 1 2 6 4 3 2 1 4 4 6 6 3 4 3 4 6 7 10 11 13 18 23 24 26 30 30 30 27 27 26 25 24 22 19 17 15 15 14 13 14 15
4 3 1 4 0 2 3 3 3 2 3 6 6 3 7 6 3 3 3 5 6 11 17 20 25 25 26 27 31 31 30 30 29 28 24 20 18 16 15 14 15 15 17 17
1 2 4 5 3 7 4 3 4 5 4 5 5 5 3 2 0 2 3 4 8 12 19 24 27 28 32 33 33 26 28 29 29 23 20 19 16 15 15 16 17 18 17 18
4 4 4 1 1 4 3 0 0 2 4 4 4 4 3 4 3 4 4 5 7 9 16 24 25 25 27 31 31 28 30 28 23 21 20 17 16 16 17 18 18 18 18 19
3 5 2 6 5 4 4 4 1 4 3 2 2 3 2 2 2 2 2 5 5 11 18 24 26 25 24 28 31 32 31 25 23 21 18 17 17 17 18 19 18 19 18 22
5 4 3 3 3 7 8 6 5 6 5 3 2 2 2 1 4 2 4 4 5 10 15 21 21 22 24 29 31 31 26 23 21 19 19 19 19 18 18 18 20 22 23 25
5 5 4 5 10 9 10 7 6 6 5 5 3 2 3 3 4 4 4 6 8 12 15 20 24 24 26 27 29 26 21 21 21 20 19 19 18 19 19 21 22 24 24 23
6 7 5 6 7 3 4 3 3 5 5 7 5 2 3 3 6 4 5 7 10 13 16 18 20 21 22 24 25 25 24 22 19 18 20 19 20 20 20 20 21 21 22 21
Wind_Direction
273 230 244 240 232 240 284 223 272 207 85 80 304 310 203 191 175 164 160 161 152 167 146 140 138 142 152 154 156 166 170 168 165 157 148 144 136 134 127 121 120 120 116 110
310 258 249 259 280 247 238 255 243 275 171 119 324 300 314 211 187 170 163 170 161 157 154 149 146 151 153 156 161 167 170 167 166 164 158 152 143 134 126 123 120 114 112 108
260 258 288 203 283 253 241 242 214 309 229 88 306 254 297 236 189 167 165 162 158 164 158 150 144 151 159 155 164 165 166 166 166 164 157 146 139 133 128 125 117 109 109 103
265 311 272 254 256 259 264 219 221 199 178 236 168 278 258 300 197 175 166 169 163 162 158 152 140 141 161 157 164 167 164 164 165 165 159 152 147 138 140 132 122 115 109 103
257 306 317 310 249 230 254 188 217 191 186 175 156 254 165 184 282 205 179 174 167 160 158 156 142 143 155 160 162 165 163 161 159 161 157 155 153 146 140 132 127 120 114 107
260 248 217 241 286 247 270 232 275 198 203 233 188 170 200 191 217 216 189 171 163 151 150 138 127 138 140 154 155 155 154 147 150 155 162 163 152 151 143 138 133 126 117 111
317 263 235 204 251 285 147 224 227 215 188 227 165 179 243 210 156 192 198 168 153 143 144 146 141 142 135 150 145 142 145 145 150 152 158 160 158 160 149 144 143 135 126 120
260 322 266 217 208 211 201 221 256 220 180 184 152 208 266 170 153 145 179 178 157 152 150 155 165 150 137 146 148 144 144 143 146 143 145 171 161 155 147 149 146 137 136 129
307 273 316 240 195 218 261 213 123 310 257 172 169 275 280 134 209 224 178 158 167 161 158 156 162 139 151 159 160 155 153 145 145 154 155 163 160 149 149 147 146 141 138 135
299 299 273 316 24 225 226 195 54 78 291 86 55 337 256 206 223 126 160 162 164 153 150 152 126 143 138 148 158 147 146 150 152 162 164 162 158 152 148 152 147 143 144 145
264 220 281 343 332 306 244 249 255 160 250 330 121 253 200 197 197 175 170 166 162 153 150 148 146 145 134 145 146 148 152 153 160 166 162 158 156 150 152 155 149 150 151 153
255 273 265 227 264 151 256 255 210 151 271 260 248 214 295 265 161 156 154 142 134 137 142 151 134 143 151 142 147 155 158 164 162 164 162 159 152 153 154 152 152 158 157 163
342 261 4 339 357 359 218 338 267 288 83 235 298 311 357 279 85 148 146 144 142 142 144 147 140 161 154 152 159 169 171 168 162 166 166 160 154 157 157 157 162 166 168 174
296 296 159 191 207 192 298 318 323 254 82 313 266 347 348 17 95 128 145 155 163 162 157 152 164 164 156 152 161 172 174 173 167 170 170 163 162 165 168 165 173 176 180 187
17 294 327 263 259 230 251 262 297 290 236 158 302 24 330 293 170 127 142 146 156 162 163 170 170 166 160 167 173 174 180 174 173 175 172 170 169 174 177 182 184 185 191 204
338 296 311 293 280 274 273 257 244 239 244 250 285 189 286 335 92 124 147 156 162 174 175 173 168 166 169 170 174 178 179 179 180 177 175 178 181 184 191 192 193 199 210 219
318 316 318 281 339 331 296 225 235 236 210 180 225 190 178 253 183 183 163 169 171 175 177 174 172 172 170 173 172 173 184 183 180 180 184 187 191 196 197 200 207 213 220 231
293 309 269 292 351 311 237 205 254 222 257 262 276 177 179 178 204 205 191 177 176 175 178 176 172 170 171 174 181 185 185 182 183 187 190 193 199 202 203 210 218 224 232 242
197 287 292 128 252 287 315 10 13 310 299 356 249 149 153 116 82 282 205 193 192 185 180 179 175 170 173 178 182 185 183 185 188 192 197 200 204 207 212 221 227 234 241 247
231 250 220 344 119 271 264 319 337 292 317 356 334 198 153 154 146 245 241 185 179 177 174 168 172 171 173 180 187 185 186 189 194 199 201 204 208 217 225 233 238 243 247 252
323 323 235 261 269 288 263 299 313 81 266 338 329 316 143 128 115 150 144 145 172 171 168 173 168 172 185 188 188 178 185 194 201 200 202 208 215 226 234 240 243 246 250 254
192 165 219 73 322 286 170 265 82 223 307 308 332 2 81 86 30 15 69 130 142 138 148 165 165 176 187 188 185 185 195 202 201 201 206 212 223 231 235 241 245 247 250 254
297 195 218 183 225 246 220 261 288 151 215 288 312 327 15 133 57 42 119 135 147 155 160 174 176 180 185 190 193 194 204 201 201 205 211 220 228 236 240 243 247 249 254 258
244 187 215 33 281 239 250 252 236 201 213 225 246 293 309 196 166 154 140 152 146 160 165 175 176 177 184 192 198 207 203 200 203 210 219 225 232 239 244 250 254 256 254 254
210 145 198 261 277 267 275 234 255 242 213 212 204 224 224 159 192 187 185 177 174 174 180 184 185 188 194 194 200 205 204 204 208 216 222 229 240 248 252 253 256 257 262 264
187 202 175 223 241 224 268 312 338 215 221 219 215 229 226 203 185 171 202 200 184 184 186 189 193 197 197 195 197 201 203 207 210 220 230 238 244 247 252 260 267 268 274 276